This is the latest recevied weather packets stored in our database for station/object EA4CZ-13. If no packets are shown the sender has not sent any weather packets the latest 1 day(s).
| Time | Temp. | Humidity | Pressure | Rain* | Wind** | Luminosity | Snow |
|---|---|---|---|---|---|---|---|
| 1778407273 | 10.56° C | 98% | 1010.5 hPa | 0 mm | - | 114 W/m² | - |
| 1778406973 | 10° C | 98% | 1010.2 hPa | 0 mm | - | 74 W/m² | - |
| 1778406673 | 10.56° C | 98% | 1010.2 hPa | 0 mm | - | 61 W/m² | - |
| 1778406373 | 12.22° C | 94% | 1010.2 hPa | 0 mm | - | 12 W/m² | - |
| 1778406073 | 12.78° C | 90% | 1009.8 hPa | 0 mm | - | 39 W/m² | - |
| 1778405773 | 12.78° C | 91% | 1009.5 hPa | 0 mm | - | 76 W/m² | - |
| 1778405473 | 12.78° C | 92% | 1009.5 hPa | 0 mm | - | 77 W/m² | - |
| 1778404873 | 12.78° C | 93% | 1009.1 hPa | 0 mm | - | 99 W/m² | - |
| 1778404573 | 12.22° C | 93% | 1009.1 hPa | 0 mm | - | 170 W/m² | - |
| 1778404273 | 12.22° C | 95% | 1009.5 hPa | 0 mm | - | 175 W/m² | - |
| 1778403973 | 12.22° C | 96% | 1009.5 hPa | 0 mm | - | 176 W/m² | - |
| 1778403673 | 11.67° C | 97% | 1009.5 hPa | 0 mm | - | 200 W/m² | - |
| 1778403073 | 11.67° C | 97% | 1009.5 hPa | 0 mm | - | 120 W/m² | - |
| 1778399172 | 11.67° C | 99% | 1009.8 hPa | 0 mm | - | 340 W/m² | - |
| 1778398872 | 11.11° C | 99% | 1010.2 hPa | 0 mm | - | 334 W/m² | - |
| 1778398572 | 10.56° C | 99% | 1010.2 hPa | 0 mm | - | 142 W/m² | - |
| 1778398272 | 10.56° C | 99% | 1010.5 hPa | 0 mm | - | 42 W/m² | - |
| 1778397973 | 10.56° C | 99% | 1010.2 hPa | 0 mm | - | 72 W/m² | - |
| 1778397672 | 10.56° C | 99% | 1010.2 hPa | 0 mm | - | 55 W/m² | - |
| 1778397072 | 10.56° C | 99% | 1010.2 hPa | 0 mm | - | 61 W/m² | - |
| 1778396772 | 10.56° C | 99% | 1010.2 hPa | 0 mm | - | 36 W/m² | - |
| 1778396472 | 10.56° C | 99% | 1010.2 hPa | 0 mm | - | 47 W/m² | - |
| 1778396172 | 10.56° C | 99% | 1010.2 hPa | 0 mm | - | 56 W/m² | - |
| 1778395572 | 10.56° C | 99% | 1010.2 hPa | 0 mm | - | 74 W/m² | - |
| 1778395272 | 10° C | 99% | 1010.2 hPa | 0 mm | - | 37 W/m² | - |
* Rain latest hour (hover to see other rain measurements)
** Current wind speed in m/s (hover to see current wind gust speed)